NOAA 17 DEB

Satellite information

Favourite Embed

Satellite Type and Status

DEBRISIN ORBIT

Key statistics

Satellite NOAA 17 DEB at a glance.

Uptime

8354

Days in orbit

Revolutions

≈ 14.5

Per day

Orbit

SSO

Sun Synchronous Orbit

Inclination

98.7

Latest

Satellite identification and parameters

Extended collection of information and parameters for NOAA 17 DEB.

Object identification

Identified? True

Debris? True

Object name: NOAA 17 DEB

International designator: 2002-032CT

Object number (NORAD): 48758

Object ID (CCSDS): 48758

Country: UNITED STATES OF AMERICA (US)

Current information (Y/N): Y

RCS size: SMALL

Orbital parameters

Period: 99.356 minutes

Inclination: 98.7239 deg

SMA: 7105.978 km

Apoapsis: 734.613 km

Periapsis: 721.073 km

RAAN: 95.9022 deg

Eccentricy: 0.0009527

Argument of periapsis: 38.0498 deg

Mean anomaly: 322.1366 deg

Mean motion: 14.49328968 rev/day

Mean motion (dot): 0.00009724 rev/day2

B* drag term: 0.0025544 1/REarth

Two-line elements (TLE)

Creation date: May 7, 2025, 2:26 p.m.

Reference frame: TEME

Reference center: EARTH

Epoch: May 6, 2025, 3:29 p.m. UTC

TLE line 0: 0 NOAA 17 DEB

TLE line 1: 1 48758U 02032CT 25126.64577533 .00009724 00000-0 25544-2 0 9999

TLE line 2: 2 48758 98.7239 95.9022 0009527 38.0498 322.1366 14.49328968214187

Live tracking on map

Real-time ground track for satellite NOAA 17 DEB.

In-orbit conjunctions

A list of the most updated potential collisions computed for object NOAA 17 DEB.

Target Orbit TCA Probability of collision Miss distance Type
SEASAT 1 SSO 2025-02-13 18:22:02 0.0001269378 219.0 (m) PAYLOAD

Associated space launch

NOAA M carried weather imagers and microwave and infrared sounders, as well as a SARSAT search-and-rescue package. It had an on-orbit mass of 1475 kg.

NOAA 17 DEB was lifted into orbit during the mission ‘Titan II SLV | NOAA 17’, on board a Titan II SLV space rocket.

The launch took place on June 24, 2002, 6:23 p.m. from Space Launch Complex 4W.

For more information about the launch, click the button.

Launch to space Titan II SLV | NOAA 17
Titan II SLV | NOAA 17

Agency: N/A

Status: Launch Successful

Launch date: June 24, 2002, 6:23 p.m. UTC

Rocket: Titan II SLV

Launch pad: Space Launch Complex 4W

Location: Vandenberg SFB, CA, USA

...

Latest news about this satellite

There are no fresh news available about this satellite. Check back as we update our databases every day.


Newsletter sign-up

Weekly statistics, charts and insights to help you stay on top of the space industry.